Aérodrome :
LOGIN :

S'inscrire | Disclaimer

   EN    FR    IT 

 










Légende :    VFR   VFR Marginal   IFR   IFR Intensif   IFR Très Intensif
Visi : 
Plafond : 
>= 8 km
>= 3000ft
5 à 8 km
1000 à 3000 ft
1500m à 5 km
500 à 1000 ft
800 à 1500m
200 à 500 ft
< 800m
< 200 ft
Symboles :   Orages  Brouillard  Fortes neiges  Fortes précipitations  Vent > 20 kt
SIGMETs :   Divers  Orages  Givrage  Turbulence  Onde Orograph.  Cendres Volcan.






- Altitude de l'aérodrome : 636 ft


LPBJ - Beja Air Base

DERNIER METAR :
  • 270800Z 34005KT 9999 FEW005 17/15 Q1023

METARs EXPIRÉS :
  • 270700Z 32004KT CAVOK 14/14 Q1023
  • 270600Z 30005KT CAVOK 14/14 Q1022

TAF TAF LPBJ
Valide du 27 à 06h jusqu'au 28 à 06h UTC


270507Z 2706/2806 34005KT CAVOK
PROB40 2706/2709 VRB02KT 4000 BCFG BKN004
PROB40 2723/2806 2000 BCFG BKN002



MET'MAP, la Météo Aéronautique d'un coup d'oeil ! - Copyright ORBIFLY Décembre 2007 - Disclaimer

ORBIFLY MET'MAP TEAM :

Programmation & Développement : Alexandra Zaïnal
Sur une idée originale de : Baudouin d'Aumeries
Assistance à la programmation : Marc-Olivier Méhu
Soutien technique & logistique : Manuel Goepfert

Contact : metmap@orbifly.com




SOURCES & CREDITS :

   NOAA